User: anonymous   Login
Location: Unspecified
(0.0000°N, 0.0000°E)
Time: 08:29:04
(UTC+00:00)
Language:

A-11 Canister half - Orbit

View from above orbital plane
View from above orbital plane
View from above satellite
View from above satellite

Ground track
Ground track

The orbit data is extracted from the following two-line orbital elements,

1 00051U 60009C   15140.48861317 -.00000022  00000-0  61671-3 0  9999
2 00051 047.2138 326.1530 0106054 048.8365 312.1516 12.18256337437947
Epoch (UTC): 20 May 2015 11:43:36
Eccentricity: 0.0106054
inclination: 47.2138°
perigee height: 1515 km
apogee height: 1685 km
right ascension of ascending node: 326.1530°
argument of perigee: 48.8365°
revolutions per day: 12.18256337
mean anomaly at epoch: 312.1516°
orbit number at epoch: 43794

The dashed part of the orbit path shows where the satellite is in the earth's shadow,  

DLR